Torna al catalogo

STARLINK-36916

AttivoComunicazioniSSO
NORAD 68022·PAYLOAD·🇺🇸 United States

Lanciato Mar 1, 2026 da Vandenberg Space Force Base

Loading…

Prossimi Passaggi (prossime 24 ore)

TLE

AggiornatoSource: CelesTrak SupGP

Epoca: Sep 15, 2026, 03:51 UTC

1 68022C 26040H   26258.16090278  .00069459  00000+0  21566-2 0  2588
2 68022  97.2858 205.5316 0001773  95.8965  22.1646 15.33397573    19

Traccia STARLINK-36916 in tempo reale con AllMySat

Download on the App Store